Terminal Aerodrome Forecast
Issued by NWS

Home | Current Version | Previous Version | Text Only | Print | Product List | Glossary On
Versions: 1 2 3 4 5 6 7 8 9 10 11 12 13 14 15 16 17 18 19 20
000
FTUS46 KLOX 201748
TAFWJF
TAF
KWJF 201748Z 2018/2118 24019KT P6SM SCT024
     FM202000 24015G25KT P6SM -RA SCT025 BKN035
     FM210200 24012KT 6SM -RA BR OVC007
     FM210900 25011KT 6SM BR VCSH OVC015=

USA.gov is the U.S. government's official web portal to all federal, state and local government web resources and services.